Tracking 30166 objects as of 22-Jan-2025
HD Live streaming from Space Station
objects crossing your sky now

STARLINK-2604

Track STARLINK-2604 now!
10-day predictions
STARLINK-2604 is classified as:


NORAD ID: 48374
Int'l Code: 2021-038X
Perigee: 553.1 km
Apogee: 555.6 km
Inclination: 53.1 °
Period: 95.6 minutes
Semi major axis: 6925 km
RCS: Unknown
Launch date: May 4, 2021
Source: United States (US)
Launch site: AIR FORCE EASTERN TEST RANGE (AFETR)
Your satellite tracking list
Your tracking list is empty




NASA's NSSDC Master Catalog

Two Line Element Set (TLE):
1 48374U 21038X   25022.03487503  .00003048  00000-0  22345-3 0  9995
2 48374  53.0547  39.9537 0001829  92.1325 267.9873 15.06393938205118
Source of the keplerian elements: AFSPC